Time,TemperatureF,DewpointF,PressureIn,WindDirection,WindDirectionDegrees,WindSpeedMPH,WindSpeedGustMPH,Humidity,HourlyPrecipIn,Conditions,Clouds,dailyrainin,SoftwareType,DateUTC
2013-09-07 00:07:00,72.3,62.4,29.91,South,180,3.7,-999.0,71,-99.99,,,0.00,Acu-Link.com,2013-09-07 05:07:00,
2013-09-07 00:22:00,72.0,62.5,29.90,SE,135,3.7,-999.0,72,-99.99,,,0.00,Acu-Link.com,2013-09-07 05:22:00,
2013-09-07 00:38:00,72.1,62.6,29.90,SSW,202,3.7,-999.0,72,-99.99,,,0.00,Acu-Link.com,2013-09-07 05:38:00,
2013-09-07 00:53:00,71.8,62.3,29.90,South,180,3.7,-999.0,72,-99.99,,,0.00,Acu-Link.com,2013-09-07 05:53:00,
2013-09-07 01:08:00,71.6,62.5,29.90,SSE,157,3.2,-999.0,73,-99.99,,,0.00,Acu-Link.com,2013-09-07 06:08:00,
2013-09-07 01:23:00,71.2,62.1,29.90,South,180,2.7,-999.0,73,-99.99,,,0.00,Acu-Link.com,2013-09-07 06:23:00,
2013-09-07 01:38:00,70.9,62.2,29.91,SSE,157,3.7,-999.0,74,-99.99,,,0.00,Acu-Link.com,2013-09-07 06:38:00,
2013-09-07 01:53:00,70.7,62.0,29.90,SE,135,3.7,-999.0,74,-99.99,,,0.00,Acu-Link.com,2013-09-07 06:53:00,
2013-09-07 02:08:00,70.7,62.0,29.90,South,180,3.7,-999.0,74,-99.99,,,0.00,Acu-Link.com,2013-09-07 07:08:00,
2013-09-07 02:23:00,70.7,62.0,29.90,South,180,3.7,-999.0,74,-99.99,,,0.00,Acu-Link.com,2013-09-07 07:23:00,
2013-09-07 02:38:00,70.3,61.6,29.90,South,180,4.2,-999.0,74,-99.99,,,0.00,Acu-Link.com,2013-09-07 07:38:00,
2013-09-07 02:54:00,71.2,62.1,29.90,South,180,5.3,-999.0,73,-99.99,,,0.00,Acu-Link.com,2013-09-07 07:54:00,
2013-09-07 03:10:00,71.4,61.9,29.89,SSW,202,5.8,-999.0,72,-99.99,,,0.00,Acu-Link.com,2013-09-07 08:10:00,
2013-09-07 03:25:00,71.4,61.9,29.90,South,180,4.7,-999.0,72,-99.99,,,0.00,Acu-Link.com,2013-09-07 08:25:00,
2013-09-07 03:40:00,71.4,61.9,29.90,South,180,4.2,-999.0,72,-99.99,,,0.00,Acu-Link.com,2013-09-07 08:40:00,
2013-09-07 03:56:00,71.6,62.1,29.90,South,180,3.2,-999.0,72,-99.99,,,0.00,Acu-Link.com,2013-09-07 08:56:00,
2013-09-07 04:11:00,71.8,61.9,29.90,South,180,3.2,-999.0,71,-99.99,,,0.00,Acu-Link.com,2013-09-07 09:11:00,
2013-09-07 04:26:00,72.0,62.1,29.90,SSW,202,3.7,-999.0,71,-99.99,,,0.00,Acu-Link.com,2013-09-07 09:26:00,
2013-09-07 04:41:00,71.6,61.7,29.90,SE,135,3.7,-999.0,71,-99.99,,,0.00,Acu-Link.com,2013-09-07 09:41:00,
2013-09-07 04:56:00,70.7,62.0,29.90,SSE,157,2.2,-999.0,74,-99.99,,,0.00,Acu-Link.com,2013-09-07 09:56:00,
2013-09-07 05:11:00,70.5,61.8,29.89,South,180,2.2,-999.0,74,-99.99,,,0.00,Acu-Link.com,2013-09-07 10:11:00,
2013-09-07 05:26:00,70.5,62.2,29.89,South,180,2.2,-999.0,75,-99.99,,,0.00,Acu-Link.com,2013-09-07 10:26:00,
2013-09-07 05:41:00,70.0,62.1,29.90,South,180,2.7,-999.0,76,-99.99,,,0.00,Acu-Link.com,2013-09-07 10:41:00,
2013-09-07 05:57:00,69.8,62.3,29.90,SSW,202,2.7,-999.0,77,-99.99,,,0.00,Acu-Link.com,2013-09-07 10:57:00,
2013-09-07 06:12:00,70.5,62.9,29.91,SSE,157,3.7,-999.0,77,-99.99,,,0.00,Acu-Link.com,2013-09-07 11:12:00,
2013-09-07 06:28:00,70.5,62.6,29.90,South,180,3.7,-999.0,76,-99.99,,,0.00,Acu-Link.com,2013-09-07 11:28:00,
2013-09-07 06:43:00,70.5,62.6,29.91,SSE,157,3.7,-999.0,76,-99.99,,,0.00,Acu-Link.com,2013-09-07 11:43:00,
2013-09-07 06:58:00,70.0,62.4,29.91,SSE,157,3.2,-999.0,77,-99.99,,,0.00,Acu-Link.com,2013-09-07 11:58:00,
2013-09-07 07:13:00,70.3,62.7,29.91,South,180,1.7,-999.0,77,-99.99,,,0.00,Acu-Link.com,2013-09-07 12:13:00,
2013-09-07 07:29:00,70.3,62.7,29.92,South,180,2.7,-999.0,77,-99.99,,,0.00,Acu-Link.com,2013-09-07 12:29:00,
2013-09-07 07:44:00,70.9,63.3,29.91,SSW,202,4.2,-999.0,77,-99.99,,,0.00,Acu-Link.com,2013-09-07 12:44:00,
2013-09-07 07:59:00,71.1,63.5,29.91,South,180,4.7,-999.0,77,-99.99,,,0.00,Acu-Link.com,2013-09-07 12:59:00,
2013-09-07 08:14:00,71.4,63.8,29.91,SSE,157,4.2,-999.0,77,-99.99,,,0.00,Acu-Link.com,2013-09-07 13:14:00,
2013-09-07 08:29:00,74.3,64.3,29.90,South,180,4.7,-999.0,71,-99.99,,,0.00,Acu-Link.com,2013-09-07 13:29:00,
2013-09-07 08:44:00,76.8,65.4,29.89,ESE,112,3.2,-999.0,68,-99.99,,,0.00,Acu-Link.com,2013-09-07 13:44:00,
2013-09-07 09:00:00,78.3,65.5,29.89,SSW,202,3.2,-999.0,65,-99.99,,,0.00,Acu-Link.com,2013-09-07 14:00:00,
2013-09-07 09:15:00,79.3,65.6,29.89,SE,135,3.2,-999.0,63,-99.99,,,0.00,Acu-Link.com,2013-09-07 14:15:00,
2013-09-07 09:30:00,80.2,66.0,29.89,South,180,5.3,-999.0,62,-99.99,,,0.00,Acu-Link.com,2013-09-07 14:30:00,
2013-09-07 09:45:00,81.7,66.4,29.89,South,180,4.7,-999.0,60,-99.99,,,0.00,Acu-Link.com,2013-09-07 14:45:00,
2013-09-07 10:00:00,83.5,66.6,29.89,South,180,4.7,-999.0,57,-99.99,,,0.00,Acu-Link.com,2013-09-07 15:00:00,
2013-09-07 10:16:00,85.5,67.5,29.88,South,180,1.7,-999.0,55,-99.99,,,0.00,Acu-Link.com,2013-09-07 15:16:00,
2013-09-07 10:31:00,86.5,67.3,29.88,SSW,202,3.7,-999.0,53,-99.99,,,0.00,Acu-Link.com,2013-09-07 15:31:00,
2013-09-07 10:46:00,87.3,66.9,29.89,North,0,5.3,-999.0,51,-99.99,,,0.00,Acu-Link.com,2013-09-07 15:46:00,
2013-09-07 11:01:00,88.2,67.8,29.88,South,180,4.7,-999.0,51,-99.99,,,0.00,Acu-Link.com,2013-09-07 16:01:00,
2013-09-07 11:16:00,89.2,67.5,29.88,South,180,5.3,-999.0,49,-99.99,,,0.00,Acu-Link.com,2013-09-07 16:16:00,
2013-09-07 11:31:00,90.1,67.7,29.87,SSE,157,6.3,-999.0,48,-99.99,,,0.00,Acu-Link.com,2013-09-07 16:31:00,
2013-09-07 11:46:00,90.5,68.1,29.87,SSE,157,3.7,-999.0,48,-99.99,,,0.00,Acu-Link.com,2013-09-07 16:46:00,
2013-09-07 12:02:00,92.5,68.0,29.87,WSW,247,3.2,-999.0,45,-99.99,,,0.00,Acu-Link.com,2013-09-07 17:02:00,
2013-09-07 12:17:00,92.3,66.5,29.86,SE,135,4.7,-999.0,43,-99.99,,,0.00,Acu-Link.com,2013-09-07 17:17:00,
2013-09-07 12:32:00,93.4,67.5,29.85,SW,225,3.2,-999.0,43,-99.99,,,0.00,Acu-Link.com,2013-09-07 17:32:00,
2013-09-07 12:47:00,94.1,67.5,29.84,South,180,11.9,-999.0,42,-99.99,,,0.00,Acu-Link.com,2013-09-07 17:47:00,
2013-09-07 13:02:00,95.0,67.6,29.84,ESE,112,4.2,-999.0,41,-99.99,,,0.00,Acu-Link.com,2013-09-07 18:02:00,
2013-09-07 13:17:00,96.3,68.0,29.84,SE,135,4.7,-999.0,40,-99.99,,,0.00,Acu-Link.com,2013-09-07 18:17:00,
2013-09-07 13:32:00,96.6,69.0,29.84,SSW,202,4.7,-999.0,41,-99.99,,,0.00,Acu-Link.com,2013-09-07 18:32:00,
2013-09-07 13:47:00,96.6,69.0,29.84,SW,225,3.2,-999.0,41,-99.99,,,0.00,Acu-Link.com,2013-09-07 18:47:00,
2013-09-07 14:03:00,97.5,70.5,29.83,SSE,157,4.7,-999.0,42,-99.99,,,0.00,Acu-Link.com,2013-09-07 19:03:00,
2013-09-07 14:18:00,97.7,68.5,29.83,NNE,22,5.3,-999.0,39,-99.99,,,0.00,Acu-Link.com,2013-09-07 19:18:00,
2013-09-07 14:33:00,98.1,68.9,29.82,West,270,3.2,-999.0,39,-99.99,,,0.00,Acu-Link.com,2013-09-07 19:33:00,
2013-09-07 14:49:00,98.4,69.1,29.81,West,270,5.3,-999.0,39,-99.99,,,0.00,Acu-Link.com,2013-09-07 19:49:00,
2013-09-07 15:04:00,98.6,67.8,29.81,South,180,2.7,-999.0,37,-99.99,,,0.00,Acu-Link.com,2013-09-07 20:04:00,
2013-09-07 15:19:00,99.0,68.1,29.81,SE,135,4.2,-999.0,37,-99.99,,,0.00,Acu-Link.com,2013-09-07 20:19:00,
2013-09-07 15:34:00,98.4,67.6,29.82,WNW,292,3.7,-999.0,37,-99.99,,,0.00,Acu-Link.com,2013-09-07 20:34:00,
2013-09-07 15:50:00,98.8,67.9,29.82,SW,225,3.2,-999.0,37,-99.99,,,0.00,Acu-Link.com,2013-09-07 20:50:00,
2013-09-07 16:14:00,99.3,69.2,29.82,South,180,1.1,-999.0,38,-99.99,,,0.00,Acu-Link.com,2013-09-07 21:14:00,
2013-09-07 16:29:00,98.2,68.9,29.82,North,0,3.7,-999.0,39,-99.99,,,0.00,Acu-Link.com,2013-09-07 21:29:00,
2013-09-07 16:45:00,98.2,68.9,29.82,West,270,7.8,-999.0,39,-99.99,,,0.00,Acu-Link.com,2013-09-07 21:45:00,
2013-09-07 17:00:00,97.7,69.2,29.82,WNW,292,6.8,-999.0,40,-99.99,,,0.00,Acu-Link.com,2013-09-07 22:00:00,
2013-09-07 17:15:00,97.0,68.6,29.81,WNW,292,3.7,-999.0,40,-99.99,,,0.00,Acu-Link.com,2013-09-07 22:15:00,
2013-09-07 17:30:00,97.2,69.5,29.80,SSE,157,2.2,-999.0,41,-99.99,,,0.00,Acu-Link.com,2013-09-07 22:30:00,
2013-09-07 17:45:00,97.2,69.5,29.80,South,180,3.2,-999.0,41,-99.99,,,0.00,Acu-Link.com,2013-09-07 22:45:00,
2013-09-07 18:00:00,96.1,68.5,29.80,ESE,112,1.7,-999.0,41,-99.99,,,0.00,Acu-Link.com,2013-09-07 23:00:00,
2013-09-07 18:16:00,92.3,69.1,29.79,West,270,0.0,-999.0,47,-99.99,,,0.00,Acu-Link.com,2013-09-07 23:16:00,
2013-09-07 18:40:00,90.9,69.6,29.79,West,270,0.0,-999.0,50,-99.99,,,0.00,Acu-Link.com,2013-09-07 23:40:00,
2013-09-07 18:56:00,89.6,70.2,29.78,West,270,0.0,-999.0,53,-99.99,,,0.00,Acu-Link.com,2013-09-07 23:56:00,
2013-09-07 19:11:00,87.1,70.5,29.77,West,270,3.7,-999.0,58,-99.99,,,0.00,Acu-Link.com,2013-09-08 00:11:00,
2013-09-07 19:26:00,86.7,70.1,29.77,West,270,2.7,-999.0,58,-99.99,,,0.00,Acu-Link.com,2013-09-08 00:26:00,
2013-09-07 19:42:00,86.4,70.3,29.78,West,270,0.0,-999.0,59,-99.99,,,0.00,Acu-Link.com,2013-09-08 00:42:00,
2013-09-07 19:57:00,85.3,70.3,29.78,West,270,0.0,-999.0,61,-99.99,,,0.00,Acu-Link.com,2013-09-08 00:57:00,
2013-09-07 20:12:00,83.7,70.7,29.79,West,270,0.0,-999.0,65,-99.99,,,0.00,Acu-Link.com,2013-09-08 01:12:00,
2013-09-07 20:32:00,82.9,70.3,29.79,West,270,0.0,-999.0,66,-99.99,,,0.00,Acu-Link.com,2013-09-08 01:32:00,
2013-09-07 20:47:00,81.5,70.3,29.80,NW,315,1.7,-999.0,69,-99.99,,,0.00,Acu-Link.com,2013-09-08 01:47:00,
2013-09-07 21:02:00,81.5,70.3,29.81,NW,315,0.0,-999.0,69,-99.99,,,0.00,Acu-Link.com,2013-09-08 02:02:00,
2013-09-07 21:17:00,81.7,70.1,29.81,NW,315,0.0,-999.0,68,-99.99,,,0.00,Acu-Link.com,2013-09-08 02:17:00,
2013-09-07 21:33:00,80.4,69.7,29.82,NW,315,0.0,-999.0,70,-99.99,,,0.00,Acu-Link.com,2013-09-08 02:33:00,
2013-09-07 21:48:00,79.5,70.1,29.82,NW,315,0.0,-999.0,73,-99.99,,,0.00,Acu-Link.com,2013-09-08 02:48:00,
2013-09-07 22:03:00,78.3,69.7,29.82,NW,315,0.0,-999.0,75,-99.99,,,0.00,Acu-Link.com,2013-09-08 03:03:00,
2013-09-07 22:33:00,76.6,69.6,29.82,NW,315,0.0,-999.0,79,-99.99,,,0.00,Acu-Link.com,2013-09-08 03:33:00,
2013-09-07 22:48:00,76.5,69.9,29.83,NW,315,0.0,-999.0,80,-99.99,,,0.00,Acu-Link.com,2013-09-08 03:48:00,
2013-09-07 23:03:00,76.1,69.5,29.84,NW,315,0.0,-999.0,80,-99.99,,,0.00,Acu-Link.com,2013-09-08 04:03:00,
2013-09-07 23:19:00,75.7,69.1,29.84,NW,315,0.0,-999.0,80,-99.99,,,0.00,Acu-Link.com,2013-09-08 04:19:00,
2013-09-07 23:34:00,75.7,69.1,29.84,NW,315,0.0,-999.0,80,-99.99,,,0.00,Acu-Link.com,2013-09-08 04:34:00,
2013-09-07 23:49:00,75.6,69.3,29.84,NW,315,0.0,-999.0,81,-99.99,,,0.00,Acu-Link.com,2013-09-08 04:49:00,